[[[{"header":{"parameterUnit":"kt","parameterCategory":2,"dx":1,"dy":1,"la1":30.253999710083008,"la2":30.299108505249023,"lo1":-89.0895004272461,"lo2":-89.04439544677734,"nx":28,"ny":28,"refTime":"2022-09-21T09:00:00:Z","depth":0,"parameterNumber":1,"parameterNumberName":"U-component_of_WINDS"},"data":[5.3331,5.354,5.3615,5.3889,5.4004,5.4206,5.4302,5.4436,5.4562,5.4813,5.4972,5.5072,5.523,5.5441,5.5618,5.566,5.573,5.5748,5.5793,5.564,5.5624,5.5609,5.5563,5.5762,5.5762,5.594,5.5942,5.5943,5.3211,5.3326,5.3493,5.3707,5.3851,5.3879,5.4052,5.4172,5.4352,5.451,5.467,5.4899,5.509,5.5247,5.5445,5.5547,5.5573,5.5595,5.5589,5.5613,5.5453,5.5403,5.5571,5.5571,5.5571,5.5571,5.5571,5.5571,5.3015,5.3137,5.331,5.3493,5.3621,5.3764,5.3895,5.4014,5.4181,5.4394,5.4455,5.4662,5.4836,5.5114,5.5227,5.5392,5.5382,5.5431,5.5444,5.5454,5.5455,5.5186,5.543,5.543,5.543,5.5429,5.5429,0,5.2894,5.2948,5.3114,5.3302,5.344,5.3595,5.3749,5.3833,5.3978,5.411,5.4308,5.4436,5.4689,5.4885,5.5089,5.5198,5.5243,5.5257,5.5291,5.5263,5.5212,5.5241,5.4975,5.5249,5.5248,5.5247,5.5246,5.5246,5.27,5.2834,5.3052,5.3159,5.3262,5.3432,5.355,5.3668,5.3788,5.3998,5.4102,5.43,5.4465,5.4772,5.4913,5.5104,5.5127,5.5223,5.5156,5.5124,5.5129,5.5119,5.5134,5.5233,5.5234,5.5236,5.5237,0,5.2583,5.2707,5.294,5.3144,5.32,5.3335,5.3511,5.364,5.3743,5.3935,5.3987,5.4149,5.4343,5.4469,5.4717,5.4778,5.5007,5.5026,5.4947,5.4957,5.5055,5.5044,5.5354,5.5401,5.5196,5.5198,5.52,0,5.2466,5.2639,5.2813,5.2942,5.3138,5.3252,5.3444,5.3551,5.3701,5.3854,5.3924,5.4066,5.4206,5.4368,5.4457,5.4667,5.4714,5.4773,5.4794,5.4766,5.4759,5.4832,5.4822,5.4839,5.4837,5.4836,5.4834,0,5.227,5.2567,5.2776,5.2864,5.31,5.3197,5.33,5.3469,5.3585,5.3755,5.3831,5.4022,5.4126,5.4273,5.4386,5.4336,5.4646,5.4601,5.4706,5.4703,5.4767,5.4761,5.5004,5.4832,5.4832,5.4831,5.4831,0,5.2194,5.2361,5.2647,5.2845,5.2918,5.3057,5.3251,5.3399,5.3574,5.3638,5.3774,5.3835,5.4029,5.3975,5.4244,5.4146,5.4246,5.4321,5.433,5.4355,5.429,5.4409,5.4628,5.4655,5.4378,5.4374,5.4371,0,5.1935,5.2257,5.2356,5.2627,5.2792,5.2858,5.3016,5.3167,5.3267,5.3424,5.3535,5.3713,5.37,5.3773,5.389,5.4012,5.4139,5.3999,5.4226,5.4233,5.4176,5.4379,5.4379,5.4566,5.4325,5.433,5.4333,0,5.175,5.2033,5.2074,5.2179,5.2397,5.2537,5.2717,5.2919,5.3017,5.3181,5.3336,5.3592,5.3592,5.3713,5.3783,5.3898,5.4057,5.3883,5.389,5.391,5.4312,5.4311,5.4342,5.4079,5.4085,5.409,5.4296,0,5.1606,5.1783,5.19,5.2127,5.2255,5.2432,5.2563,5.2681,5.2734,5.2835,5.3066,5.3226,5.3433,5.3502,5.3557,5.3779,5.3761,5.376,5.3716,5.3848,5.3919,5.3948,5.3598,5.3598,5.3597,5.3597,0,0,5.1326,5.1583,5.1686,5.1864,5.1978,5.2044,5.222,5.234,5.2579,5.2658,5.2634,5.3016,5.3147,5.3414,5.3466,5.355,5.3602,5.3551,5.3784,5.3804,5.3823,5.3897,5.3925,5.3596,5.3596,5.3596,5.3596,0,5.13,5.1429,5.1601,5.1729,5.1921,5.2018,5.206,5.2262,5.2335,5.2562,5.2614,5.2769,5.3072,5.3204,5.331,5.3522,5.3554,5.3576,5.3644,5.3775,5.3796,5.3815,5.3891,5.3916,5.3595,5.3595,5.3595,0,5.114,5.1288,5.1385,5.1647,5.1773,5.1943,5.1929,5.2109,5.2237,5.2301,5.2525,5.2632,5.282,5.3055,5.3166,5.3148,5.3501,5.3414,5.342,5.3435,5.3569,5.3594,5.3615,5.3324,5.3323,5.3321,0,0,5.11,5.1265,5.1461,5.1651,5.1727,5.1874,5.1978,5.2042,5.2207,5.2273,5.2411,5.2571,5.2749,5.2863,5.3036,5.3276,5.3325,5.3375,5.3388,5.3398,5.3418,5.3553,5.3578,5.3316,5.3316,5.3315,0,0,5.1081,5.1314,5.1339,5.1576,5.173,5.1936,5.2048,5.2084,5.2253,5.2247,5.2367,5.2415,5.2637,5.2741,5.2649,5.3023,5.2977,5.3002,5.2947,5.2965,5.2978,5.2948,5.2657,0,0,0,0,0,5.1121,5.1285,5.1305,5.1364,5.1696,5.1925,5.1968,5.2069,5.2033,5.212,5.2241,5.2268,5.2716,5.2637,5.2695,5.2796,5.3242,5.3255,5.3268,5.3254,5.3272,5.3286,0,0,0,0,0,0,5.1145,5.1217,5.1301,5.1512,5.1588,5.192,5.1882,5.1914,5.2027,5.2028,5.2243,5.2274,5.2366,5.2614,5.2665,5.2759,5.264,5.3247,5.3259,5.3268,5.326,5.3274,5.3287,0,0,0,0,0,5.1165,5.1223,5.1728,5.1511,5.1576,5.1749,5.1877,5.1903,5.1992,5.218,5.2211,5.2058,5.2366,5.2416,5.2645,5.2733,5.2606,5.2625,5.3255,5.3263,5.3271,5.3267,0,0,0,0,0,0,5.118,5.125,5.1743,5.1767,5.1456,5.1733,5.1779,5.1893,5.2139,5.2171,5.1999,5.1997,5.2368,5.2406,5.2445,5.2719,5.2578,5.2597,5.2608,5.3261,5.3268,5.3274,0,0,0,0,0,0,5.1219,5.127,5.1756,5.1681,5.1697,5.1717,5.1759,5.1968,5.2141,5.1945,5.1951,5.1995,5.2311,5.24,5.243,5.2754,5.2556,5.2574,5.2587,5.2595,5.3267,5.3272,0,0,0,0,0,0,5.1242,5.1286,5.1675,5.1687,5.1701,5.1977,5.1905,5.224,5.2073,5.1933,5.2061,5.2056,5.2305,5.2337,5.242,5.2731,5.2748,5.2557,5.2569,5.2578,5.2584,0,0,0,0,0,0,0,5.1261,5.0947,5.1602,5.1693,5.1705,5.1988,5.1994,5.2001,5.2072,5.2067,5.2063,5.2058,5.2453,5.2472,5.2493,5.2712,0,0,5.2555,5.2564,0,0,0,0,0,0,0,0,5.0932,5.0944,5.1602,5.1607,5.1612,5.1989,5.1994,5.1999,5.2071,5.2067,5.2064,5.206,5.2458,5.2474,5.249,0,0,0,0,0,0,0,0,0,0,0,0,0,0,0,5.1603,5.1607,0,5.1989,5.1994,5.1998,5.2071,5.2068,5.2064,5.2061,5.2462,5.2476,5.2489,0,0,0,0,0,0,0,0,0,0,0,0,0,0,0,0,0,0,0,0,0,0,0,0,0,0,0,0,0,0,0,0,0,0,0,0,0,0,0,0,0,0,0,0,0,0,0,0,0,0,0,0,0,0,0,0,0,0,0,0,0,0,0,0,0,0,0,0,0]}],[{"header":{"parameterUnit":"kt","parameterCategory":2,"dx":1,"dy":1,"la1":30.253999710083008,"la2":30.299108505249023,"lo1":-89.0895004272461,"lo2":-89.04439544677734,"nx":28,"ny":28,"refTime":"2022-09-21T09:00:00:Z","depth":0,"parameterNumber":2,"parameterNumberName":"V-component_of_WINDS"},"data":[4.5685,4.5739,4.5726,4.5781,4.5779,4.5814,4.5822,4.5832,4.5835,4.5875,4.5895,4.5887,4.5884,4.5904,4.5925,4.592,4.593,4.5959,4.5949,4.5832,4.5815,4.5798,4.5785,4.5962,4.5962,4.6072,4.6073,4.6074,4.5602,4.5601,4.5626,4.5642,4.5663,4.5628,4.5637,4.5657,4.5689,4.5694,4.5712,4.5746,4.577,4.5757,4.5777,4.5801,4.5785,4.5808,4.5806,4.5806,4.5681,4.5667,4.5821,4.582,4.582,4.582,4.582,4.582,4.5448,4.548,4.5482,4.5509,4.5513,4.5524,4.5552,4.5541,4.5564,4.5585,4.5563,4.5599,4.56,4.5617,4.5619,4.5645,4.5618,4.5638,4.5643,4.5648,4.5657,4.5501,4.5648,4.5647,4.5647,4.5647,4.5646,0,4.533,4.5318,4.534,4.536,4.5379,4.5392,4.5401,4.5418,4.5384,4.5405,4.5434,4.5448,4.5475,4.55,4.5515,4.5513,4.5477,4.5471,4.5485,4.5497,4.5506,4.5502,4.5299,4.5467,4.5465,4.5464,4.5463,4.5463,4.5174,4.5213,4.5208,4.5226,4.5228,4.5257,4.5271,4.5238,4.5254,4.526,4.529,4.5314,4.5332,4.5379,4.5364,4.5384,4.5367,4.5433,4.5369,4.5379,4.5368,4.5367,4.5371,4.5446,4.5448,4.545,4.5451,0,4.5087,4.5065,4.5121,4.5111,4.511,4.5152,4.5143,4.5173,4.5158,4.5198,4.5205,4.5181,4.5209,4.5183,4.5209,4.5194,4.5263,4.5245,4.5263,4.5258,4.5315,4.5311,4.5503,4.5526,4.5343,4.5345,4.5346,0,4.4945,4.4997,4.4961,4.4994,4.5051,4.5016,4.5073,4.5065,4.5065,4.5096,4.5051,4.508,4.5042,4.5067,4.5046,4.5097,4.5101,4.5093,4.5087,4.5098,4.5099,4.5106,4.5098,4.507,4.5069,4.5068,4.5068,0,4.4812,4.4853,4.4907,4.4913,4.4907,4.4933,4.4931,4.4931,4.4944,4.4958,4.4966,4.4984,4.4994,4.5009,4.4981,4.4939,4.5043,4.4979,4.5034,4.5035,4.5059,4.5058,4.5235,4.5067,4.5066,4.5066,4.5066,0,4.4693,4.4709,4.4791,4.4785,4.4796,4.4832,4.4847,4.4871,4.4874,4.4862,4.4872,4.4839,4.4881,4.482,4.4878,4.4831,4.4844,4.4839,4.4843,4.4845,4.4778,4.4882,4.5053,4.507,4.4847,4.4846,4.4844,0,4.4548,4.4624,4.4594,4.4672,4.4704,4.4651,4.4689,4.4692,4.468,4.4705,4.469,4.4718,4.4667,4.4672,4.4704,4.469,4.4751,4.4681,4.4716,4.4718,4.4718,4.4875,4.4907,4.5018,4.482,4.4823,4.4825,0,4.4432,4.4424,4.444,4.4444,4.4443,4.4469,4.4513,4.4532,4.455,4.4558,4.4594,4.4632,4.4595,4.4603,4.4577,4.4612,4.4709,4.4567,4.4567,4.4594,4.4806,4.4836,4.4855,4.4683,4.4686,4.4689,4.4806,0,4.4259,4.4293,4.4335,4.4347,4.4362,4.4409,4.4381,4.44,4.4374,4.436,4.4412,4.4406,4.4425,4.4439,4.4413,4.4501,4.4482,4.4442,4.4381,4.4484,4.4522,4.4537,4.4327,4.4325,4.4323,4.4322,0,0,4.4125,4.4174,4.4139,4.418,4.4191,4.4135,4.4188,4.4192,4.4201,4.4209,4.4175,4.4227,4.4224,4.429,4.4319,4.4327,4.434,4.4305,4.4435,4.4448,4.4459,4.45,4.4517,4.4319,4.4318,4.4318,4.4317,0,4.4056,4.4055,4.4108,4.411,4.4113,4.4095,4.4108,4.41,4.4093,4.4143,4.4095,4.4123,4.4165,4.4168,4.4175,4.4296,4.4259,4.4304,4.4379,4.4419,4.4434,4.4447,4.4491,4.4507,4.4313,4.4313,4.4314,0,4.3937,4.3931,4.3954,4.3975,4.3976,4.4009,4.3938,4.3976,4.4,4.3935,4.3986,4.3979,4.398,4.4046,4.4074,4.4043,4.4186,4.4135,4.4145,4.4148,4.4185,4.4203,4.4219,4.4008,4.4007,4.4006,0,0,4.3881,4.3912,4.3895,4.3958,4.3962,4.3936,4.3951,4.3926,4.3929,4.393,4.392,4.3924,4.3948,4.3965,4.3985,4.4061,4.4059,4.4099,4.4114,4.4125,4.4135,4.4175,4.4192,4.4002,4.4002,4.4002,0,0,4.3853,4.3837,4.381,4.3879,4.3884,4.3871,4.391,4.3876,4.3893,4.3884,4.3842,4.3842,4.3902,4.3897,4.3853,4.3963,4.3903,4.3913,4.3964,4.3982,4.3996,4.3996,4.3779,0,0,0,0,0,4.3768,4.3839,4.3814,4.3822,4.3848,4.3885,4.3888,4.3856,4.3814,4.3846,4.3832,4.379,4.3865,4.3825,4.3832,4.3882,4.3956,4.3965,4.3972,4.4056,4.4075,4.4091,0,0,0,0,0,0,4.3771,4.378,4.3812,4.3803,4.3808,4.3882,4.3804,4.3797,4.381,4.3801,4.3794,4.379,4.3763,4.3819,4.3826,4.3874,4.3776,4.396,4.3967,4.3973,4.4063,4.4078,4.4092,0,0,0,0,0,4.3773,4.378,4.3831,4.3801,4.3806,4.3781,4.3801,4.3795,4.3804,4.3782,4.3777,4.3779,4.3765,4.3769,4.3823,4.3871,4.3771,4.3774,4.3964,4.397,4.3974,4.407,0,0,0,0,0,0,4.3774,4.3774,4.3831,4.3832,4.3772,4.3776,4.3775,4.3793,4.3783,4.3779,4.3764,4.3757,4.3768,4.377,4.3774,4.3872,4.3766,4.3769,4.3771,4.3968,4.3972,4.3976,0,0,0,0,0,0,4.377,4.3775,4.3832,4.3797,4.3793,4.3772,4.3771,4.3812,4.3784,4.3765,4.3759,4.3761,4.3762,4.3772,4.3774,4.3838,4.3763,4.3766,4.3768,4.3769,4.3972,4.3975,0,0,0,0,0,0,4.3771,4.3775,4.3796,4.3793,4.3789,4.379,4.3807,4.3836,4.3755,4.3767,4.3747,4.3743,4.3765,4.3766,4.3774,4.3838,4.3838,4.3763,4.3765,4.3766,4.3767,0,0,0,0,0,0,0,4.3772,4.3752,4.383,4.3791,4.3787,4.3834,4.3834,4.3834,4.3754,4.3751,4.3748,4.3745,4.3747,4.375,4.3753,4.3838,0,0,4.3763,4.3764,0,0,0,0,0,0,0,0,4.375,4.3752,4.383,4.383,4.383,4.3834,4.3834,4.3834,4.3754,4.3751,4.3748,4.3746,4.3748,4.3751,4.3753,0,0,0,0,0,0,0,0,0,0,0,0,0,0,0,4.383,4.383,0,4.3834,4.3834,4.3834,4.3753,4.3751,4.3749,4.3747,4.3749,4.3751,4.3753,0,0,0,0,0,0,0,0,0,0,0,0,0,0,0,0,0,0,0,0,0,0,0,0,0,0,0,0,0,0,0,0,0,0,0,0,0,0,0,0,0,0,0,0,0,0,0,0,0,0,0,0,0,0,0,0,0,0,0,0,0,0,0,0,0,0,0,0,0]}]]]